Regional Weather Roundup
Issued by NWS

Home | Current Version | Previous Version | Graphics & Text | Print | Product List | Glossary On
Versions: 1 2 3 4 5 6 7 8 9 10 11 12 13 14 15 16 17 18 19 20 21 22 23 24 25 26 27 28 29 30 31 32 33 34 35 36 37 38 39 40 41 42 43 44 45 46 47 48 49 50
000
ASUS44 KMEG 032300
RWRTN
TENNESSEE HOURLY STATE WEATHER ROUNDUP
NATIONAL WEATHER SERVICE MEMPHIS TN
600 PM CDT SUN MAY 03 2015

TNZ002-004-019-021-049-052-054-088>092-040000-
WEST TENNESSEE

CITY           SKY/WX    TMP DP  RH WIND       PRES   REMARKS
MEMPHIS INTL   MOSUNNY   80  50  34 S8G16     30.04S
NWS MEMPHIS      N/A    N/A N/A N/A MISG        N/A
JACKSON        MOSUNNY   77  48  35 SW12      30.06S
DYERSBURG      PTSUNNY   79  43  27 S7        30.06R
PARIS          SUNNY     75  48  38 S6        30.06S
$$

TNZ008-025-027-028-033-062-065-066-040000-
NORTH MIDDLE TENNESSEE

CITY           SKY/WX    TMP DP  RH WIND       PRES   REMARKS
NASHVILLE      MOSUNNY   78  48  34 SW6       30.08S
CLARKSVILLE    MOSUNNY   78  48  34 SW7       30.06S
CROSSVILLE     PTSUNNY   73  45  36 S6        30.14R
$$

TNZ061-075-076-078-094-096-097-040000-
SOUTH MIDDLE TENNESSEE

CITY           SKY/WX    TMP DP  RH WIND       PRES   REMARKS
FAYETTEVILLE     N/A     75  46  35 SW7       30.11S
WINCHESTER     SUNNY     77  46  33 SW5       30.11S
SHELBYVILLE    SUNNY     75  52  43 SW7       30.11S
$$

TNZ017-018-042-046-047-040000-
NORTHEAST TENNESSEE

CITY           SKY/WX    TMP DP  RH WIND       PRES   REMARKS
TRI CITIES     MOSUNNY   76  38  25 NW6       30.13R
ELIZABETHTON   CLEAR     73  43  33 W5        30.13R
$$

TNZ012-013-036-069-073-074-040000-
CENTRAL EAST TENNESSEE

CITY           SKY/WX    TMP DP  RH WIND       PRES   REMARKS
KNOXVILLE      MOSUNNY   76  45  33 W9        30.11R
OAK RIDGE      SUNNY     77  44  30 VRB5      30.12S
GATLINBURG     CLEAR     75  45  33 W3        30.11R
$$

TNZ083-085-099-040000-
SOUTHEAST TENNESSEE

CITY           SKY/WX    TMP DP  RH WIND       PRES   REMARKS
CHATTANOOGA    PTSUNNY   79  42  26 S6        30.11R
$$

SKY/WX REPORTED AS FAIR MEANS FEW OR NO CLOUDS BELOW
12 THOUSAND FEET.



USA.gov is the U.S. government's official web portal to all federal, state and local government web resources and services.